Location: Unspecified
(0.0000°N, 0.0000°E)
Time: 21:18:03
(UTC+02:00)

Daily predictions for brighter satellites

Satellite Brightness Start Highest point End
(mag) Time Altitude Azimuth Time Altitude Azimuth Time Altitude Azimuth
Meteor 2-5 Rocket 4.1 20:18:28 10° SSE 20:24:05 45° E 20:29:36 10° NNE
MAQSAT/ARIANE V 2.8 20:24:13 10° WNW 20:26:10 30° N 20:30:21 10° ENE
Meteor 2-21 Rocket 4.5 20:23:21 10° N 20:29:27 69° E 20:35:37 10° S
ALOS 3.7 20:26:17 10° SE 20:29:40 20° ENE 20:33:02 10° NNE
ARIANE 5 DEB (SYLDA) 3.6 20:27:34 10° W 20:30:43 73° S 20:41:16 10° E
Cosmos 1302 Rocket 4.2 20:26:04 10° NNW 20:31:20 83° WSW 20:36:35 10° S
Nadezhda 3 Rocket 4.2 20:25:17 10° S 20:31:39 81° W 20:37:54 10° N
ASC 2 Rocket 3.8 20:28:44 10° WNW 20:33:38 83° SSW 20:40:57 10° ESE
Cosmos 2360 Rocket 2.2 20:28:20 10° N 20:33:54 77° ENE 20:39:30 10° SSE
GPS 2-18 Rocket1 3.2 20:31:07 10° WSW 20:35:11 85° NNW 20:39:10 10° ENE
SL-16 R/B 4.3 20:35:04 10° NW 20:39:41 26° WSW 20:44:19 10° SSW
XTE 3.6 20:38:47 10° SW 20:41:29 34° SSE 20:43:55 12° E
Meteor 2-14 Rocket 4.5 20:35:56 10° N 20:42:02 86° E 20:48:12 10° S
Cosmos 1741 Rocket 4.5 20:37:19 10° S 20:42:17 40° ESE 20:47:13 10° NNE
SJ-6B 4.4 20:40:56 11° ESE 20:43:23 17° E 20:45:59 10° NE
Cosmos 1184 Rocket 4.4 20:42:16 10° SE 20:44:35 18° E 20:46:53 10° NE
FREGAT/IRIS 4.1 20:42:49 12° SE 20:44:51 21° E 20:47:14 10° NNE
USA 215 4.0 20:41:36 10° ESE 20:47:26 36° NE 20:53:17 10° N
Cosmos 1340 Rocket 4.2 20:44:35 10° SE 20:47:30 20° E 20:50:25 10° NE
COSMOS 2428 3.3 20:43:05 10° N 20:48:17 37° ENE 20:53:11 11° SE
Cosmos 1805 3.7 20:48:21 10° NNW 20:52:13 65° W 20:56:07 10° S
METEOR-M 4.1 20:47:53 10° SSE 20:53:15 85° ENE 20:58:36 10° N
Cosmos 1733 4.0 20:49:55 10° NNE 20:53:19 30° E 20:55:54 15° SE
ARIANE 5 R/B 1.9 20:47:04 10° W 20:55:35 72° S 20:57:14 21° ESE
Cosmos 2219 Rocket 3.4 20:51:35 10° NNE 20:55:49 22° ENE 20:58:11 17° ESE
ATLAS CENTAUR Rocket 4.1 20:50:54 10° W 21:00:02 25° SW 21:03:54 10° SSE
ASTRO F (AKARI) 4.2 20:57:45 10° NNE 21:00:53 89° WNW 21:04:07 10° SSW
Cosmos 1727 Rocket 4.4 20:56:50 10° SSE 21:02:37 40° E 21:08:26 10° NNE
BLOCK DM-SL R/B 3.9 20:58:46 10° W 21:06:09 48° N 21:09:28 13° ENE
Cosmos 1470 2.7 21:07:38 10° N 21:11:28 59° E 21:13:52 21° SSE
ATLAS 2A CENTAUR R/B 4.5 21:04:20 10° WSW 21:11:46 90° NNW 22:13:37 10° ENE
Cosmos 2333 Rocket 3.2 21:08:26 10° NNE 21:12:59 25° ENE 21:14:15 23° E
CRYOSAT 2 4.4 21:09:59 10° S 21:14:51 83° W 21:19:42 10° N
Cosmos 2098 4.3 21:14:45 10° N 21:17:51 87° E 21:20:27 19° S
Cosmos-2242 3.2 21:14:14 10° N 21:18:23 49° E 21:20:06 31° SE
Ariane H10+ 1.2 21:19:28 10° WSW 21:23:27 40° S 21:23:27 40° S
ARIANE 5 DEB (SYLDA) 3.3 21:22:15 10° WSW 21:23:42 27° SSW 21:23:42 27° SSW
Meteor 2-15 4.3 21:19:52 10° S 21:25:56 84° E 21:31:58 10° N
SWIFT 3.9 21:23:22 10° NW 21:26:55 25° NNE 21:28:14 22° NE
FengYun 1-2 T 4.1 21:24:32 22° SSE 21:28:06 68° ENE 21:33:32 10° N
H-2A R/B 2.6 21:28:02 55° ESE 21:28:35 63° ENE 21:32:17 10° N
Delta 198 3.5 21:28:49 10° SW 21:32:01 46° S 21:32:01 46° S
NOSS 0 Rocket 4.3 21:29:55 10° N 21:35:43 42° ENE 21:36:46 39° E
USA 32 4.0 21:36:58 39° SSE 21:38:46 61° E 21:43:54 10° NNE
USA 234 3.2 21:32:20 10° NE 21:38:53 88° NW 21:45:26 10° SW
Aureole 2 Rocket 4.5 21:39:06 10° N 21:40:18 18° NNE 21:40:18 18° NNE
Celestis-02/Orion 38 4.5 21:45:58 58° E 21:46:27 61° ENE 21:51:28 10° NNW
Okean 3 Rocket 3.5 21:48:32 74° ENE 21:48:32 74° ENE 21:52:47 10° N
BLOCK-DM UPPERSTAGE 3.1 21:43:05 10° W 21:48:54 89° N 21:49:14 75° E
Cosmos 1980 4.0 21:48:51 10° N 21:53:48 49° ENE 21:53:48 49° ENE
ARIANE 5 DEB (SYLDA) 3.9 21:54:08 10° W 21:57:49 77° S 21:59:55 50° ESE
ARIANE 5 DEB (SYLDA) 3.8 21:55:25 10° W 21:58:48 70° WSW 21:58:48 70° WSW
Cosmos 2237 Rocket 2.5 21:58:03 10° N 22:02:34 50° NE 22:02:34 50° NE
ATLAS 2AS CENTAUR R/B 3.7 21:57:47 10° NW 22:04:21 40° WSW 22:07:54 23° SSW
Helios 1B rocket 3.3 22:01:07 10° N 22:04:29 48° NW 22:04:29 48° NW
Ariane H10+ 3.6 21:36:43 10° W 22:05:29 75° N 22:07:11 52° ENE
Cosmos 1000 Rocket 4.5 22:13:29 71° NE 22:13:29 71° NE 22:19:08 10° N
ARIANE 5 R/B 4.3 13:18:52 10° W 22:14:07 85° N 22:16:10 57° E
Spelda 3.9 22:13:18 10° WNW 22:15:08 37° NW 22:15:08 37° NW
GEOS 3 Rocket 4.4 22:19:32 41° N 22:19:32 41° N 22:22:53 10° NNW
Resurs 01 Rocket 3.2 22:23:34 33° WNW 22:23:34 33° WNW 22:26:30 10° NNW
Spot 2 Rocket 4.4 22:25:58 46° WNW 22:25:58 46° WNW 22:29:51 10° NNW
SL-16 R/B 4.3 22:24:57 10° N 22:26:02 15° NNE 22:26:02 15° NNE
USA 215 4.3 22:28:58 32° SSW 22:30:10 35° SW 22:36:00 10° WNW
Cosmos 2219 Rocket 3.9 22:34:55 10° NW 22:39:27 25° WSW 22:39:58 25° WSW
Cosmos 2333 Rocket 4.2 22:52:45 10° WNW 22:56:19 21° W 22:56:19 21° W
